Miscellaneous Local Product
Issued by NWS Hastings, NE

Home | Current Version | Previous Version | Text Only | Print | Product List | Glossary Off
Versions: 1 2 3 4 5 6 7 8 9 10 11 12 13 14 15 16 17 18 19 20 21 22 23 24 25 26 27 28 29 30 31 32 33 34 35 36 37 38 39 40 41 42 43 44 45 46 47 48 49 50

000
AXUS43 KGID 270502
MISGRI

GID CWA HOURLY WEATHER ROUNDUP
NATIONAL WEATHER SERVICE HASTINGS NE
1200 AM CDT MON APR 27 2015

NOTE: "FAIR" INDICATES FEW OR NO CLOUDS BELOW 12,000 FEET WITH NO
SIGNIFICANT WEATHER AND/OR OBSTRUCTIONS TO VISIBILITY.

...SOUTH CENTRAL NEBRASKA...

CITY           SKY/WX    TMP DP  RH WIND       PRES   REMARKS
GRAND ISLAND   CLEAR     39  35  86 NE6       30.10S WCI  35
HASTINGS       PTCLDY    45  38  76 E8        30.08R
KEARNEY        CLEAR     39  36  87 NE7       30.10R WCI  34
ORD            CLEAR     37  32  82 NW7       30.11S WCI  32
YORK           CLEAR     43  37  81 E3        30.10R
AURORA         CLEAR     45  39  79 E8        30.09S
LEXINGTON      PTCLDY    44  40  83 NE6       30.10R
HOLDREGE       PTCLDY    43  40  88 N5        30.08R
HEBRON         MOCLDY    45  37  72 NE5       30.07R

...NEBRASKA PANHANDLE...

CITY           SKY/WX    TMP DP  RH WIND       PRES   REMARKS
CHADRON        CLOUDY    43  39  86 NE7       30.14R
ALLIANCE       CLOUDY    42  39  89 CALM      30.13R
SCOTTSBLUFF    CLOUDY    44  32  62 SE3       30.13R
SIDNEY         LGT RAIN  42  41  96 E5        30.13R FOG

...WESTERN AND NORTH CENTRAL NEBRASKA...

CITY           SKY/WX    TMP DP  RH WIND       PRES   REMARKS
VALENTINE      PTCLDY    46  31  55 NE3       30.14R
AINSWORTH      PTCLDY    42  31  64 SE3       30.14R
ONEILL         CLEAR     44  37  74 SW5       30.13R
BROKEN BOW     PTCLDY    37  33  85 NE3       30.11S
IMPERIAL       CLOUDY    47  42  83 NE10      30.10S
NORTH PLATTE   NOT AVBL
MCCOOK         CLOUDY    50  43  77 NE6       30.09R

...EASTERN NEBRASKA...

CITY           SKY/WX    TMP DP  RH WIND       PRES   REMARKS
NORFOLK        CLEAR     45  35  68 CALM      30.11R
SO SIOUX CITY  CLEAR     45  29  53 S3        30.12R
TEKAMAH        CLEAR     47  35  63 CALM      30.11R
COLUMBUS       CLEAR     39  32  75 N3        30.11F
ALBION         CLEAR     41  34  75 CALM      30.12R
OMAHA EPPLEY   PTCLDY    50  35  56 CALM      30.10S
OFFUTT AFB     CLEAR     41  36  82 E5        30.09S
MILLARD        CLEAR     47  37  66 CALM      30.10R
LINCOLN        CLEAR     41  36  82 NW3       30.10S
NEBRASKA CITY  CLEAR     48  29  48 CALM      30.09R
BEATRICE       PTCLDY    46  37  69 NE7       30.07R
FALLS CITY     PTCLDY    50  32  50 NE7       30.07R

...NORTHERN KANSAS...

CITY           SKY/WX    TMP DP  RH WIND       PRES   REMARKS
GOODLAND       CLOUDY    44  43  96 E8        30.07S
HILL CITY      CLOUDY    48  43  82 NW5       30.07F
NORTON         CLEAR     43  37  81 W5        30.08S
PHILLIPSBURG   CLEAR     46  46 100 NW6       30.07R
SMITH CENTER   CLEAR     45  39  81 N6        30.07
HAYS           CLOUDY    48  39  71 N6        30.05R
RUSSELL        CLOUDY    46  44  93 N6        30.04R
CONCORDIA      MOCLDY    47  40  76 NE5       30.03S
SALINA         CLOUDY    49  42  77 N5        30.03R
TOPEKA         MOCLDY    50  39  66 E3        30.02R



USA.gov is the U.S. government's official web portal to all federal, state and local government web resources and services.